Theta_e
329 329 329 330 329 328 328 328 326 324 326 327 327 325 323 323 322 321 324 324 325 324 323 327 328 328 327 327 326 325 326 327 327 327 328 327 326 323 318 313 311 309 308 307 306 306 306 306 306 307 307 306 307 306 306 305 305 305 305 305 305 305 305 305 306 306 306 306 306 306 306 306 306 306 306 306 307 306 306 307 307 307 308 308 308
330 329 329 330 329 327 326 328 328 327 327 327 327 325 323 323 323 323 325 325 325 325 324 326 328 328 327 327 328 327 327 327 328 329 330 330 328 325 321 318 316 315 314 313 311 308 307 306 306 305 305 305 305 305 306 305 305 305 305 305 305 305 305 305 305 305 306 306 306 306 305 306 306 306 306 306 306 306 306 306 307 307 307 308 308
330 330 329 330 330 327 327 328 329 329 328 327 327 327 326 324 323 324 326 325 324 324 324 325 326 328 327 327 329 329 328 328 330 330 330 330 329 326 324 322 321 320 319 319 318 315 311 309 307 306 305 306 306 305 305 304 304 305 304 304 304 304 305 305 304 305 305 305 305 305 305 305 306 306 306 306 306 306 306 307 306 306 307 307 307
330 332 330 330 331 330 329 329 330 330 328 327 327 328 327 325 322 323 326 326 325 325 326 327 327 327 327 327 329 328 328 328 329 330 330 330 329 327 325 324 323 322 322 322 323 322 319 315 311 310 309 308 308 307 307 306 306 305 305 305 304 304 305 305 304 304 304 304 305 305 305 305 305 306 306 306 306 306 306 306 306 307 306 306 307
331 332 331 331 331 331 330 329 330 330 328 328 327 328 327 326 323 322 325 327 326 326 327 328 327 327 326 327 328 328 327 327 327 328 329 329 330 328 326 326 325 324 324 323 323 324 324 323 320 318 315 313 312 311 310 309 310 309 308 307 305 304 304 304 304 304 304 304 304 304 304 304 305 305 306 306 306 306 306 306 307 307 307 306 306
330 331 332 331 331 331 330 328 328 328 328 328 328 328 327 327 325 324 326 327 326 326 327 327 327 327 327 326 327 328 328 327 327 327 328 328 328 328 327 328 327 326 325 324 322 323 324 325 325 324 323 321 320 319 317 315 314 312 312 311 309 306 304 304 304 304 304 304 304 304 304 304 304 305 306 306 306 306 307 307 307 307 307 307 307
331 331 331 331 331 331 330 327 325 326 326 326 327 327 327 328 327 326 326 327 327 327 327 327 327 327 327 327 326 326 326 327 326 326 326 326 326 328 328 328 327 327 325 324 323 322 322 323 324 325 325 325 324 324 323 321 319 317 315 314 313 311 308 306 304 303 303 303 303 303 303 303 304 304 305 306 306 306 306 307 307 307 307 307 307
331 330 331 331 331 330 329 326 324 325 325 326 326 326 327 327 328 327 327 326 327 328 328 327 327 327 327 327 326 326 326 326 326 325 325 325 324 326 329 328 327 327 326 325 324 323 322 322 323 324 324 325 326 326 326 326 324 323 321 318 315 314 312 310 307 305 304 303 303 303 303 303 303 304 305 305 306 306 306 307 307 308 308 308 307
330 329 330 330 330 330 329 326 326 326 326 326 326 326 325 326 327 328 328 328 328 328 328 326 325 327 328 327 327 327 327 326 326 326 326 326 324 324 326 327 327 326 326 326 325 324 324 323 322 323 324 325 325 327 327 327 327 326 326 323 318 316 315 313 310 308 307 305 304 303 303 303 303 304 304 305 305 306 306 306 307 308 308 308 308
329 328 328 328 329 329 328 326 327 327 326 325 326 326 326 326 327 327 328 328 328 328 328 326 325 326 327 327 327 328 328 327 327 327 326 326 326 324 324 325 327 327 327 327 326 326 326 325 324 323 324 325 326 327 328 328 327 327 327 327 324 321 318 316 313 312 311 310 308 305 304 303 303 303 304 305 306 306 306 306 306 307 308 308 308
328 327 326 327 328 329 327 326 326 326 326 326 326 326 327 327 327 327 327 328 328 328 328 327 326 327 327 327 327 328 327 327 326 325 325 324 324 325 324 324 326 327 327 328 327 327 326 326 325 325 325 325 326 327 328 329 328 327 327 327 327 325 323 320 317 316 316 315 314 311 309 307 306 305 306 307 307 307 306 306 306 306 308 309 309
326 326 327 327 328 328 328 327 327 326 327 327 326 327 328 328 328 327 327 327 327 328 327 327 326 327 327 327 327 326 325 324 323 324 323 322 322 323 322 322 325 326 326 327 327 327 327 327 326 326 326 326 325 326 327 327 328 328 328 327 326 326 325 323 321 320 320 319 318 317 315 314 313 311 310 310 309 308 307 307 306 306 307 308 309
326 327 328 328 328 328 328 328 327 326 325 325 326 328 328 328 328 328 327 327 327 328 327 326 326 326 326 325 324 324 323 323 323 323 323 322 321 320 320 320 322 323 323 325 326 326 327 327 327 327 327 326 325 325 325 326 326 328 328 327 326 326 326 325 324 325 325 322 320 319 318 318 317 315 313 312 310 310 310 310 308 308 307 308 309
327 328 328 328 328 329 328 326 325 324 324 324 325 327 327 328 328 328 327 327 327 327 326 326 325 324 324 324 323 323 323 323 323 323 322 320 319 318 318 319 319 319 320 322 324 324 325 326 326 326 326 327 326 326 326 326 326 328 328 328 327 326 327 326 326 328 328 326 323 321 319 318 318 316 315 314 314 314 314 313 312 310 309 308 308
327 328 327 327 327 327 326 324 324 324 324 324 324 326 326 326 327 327 327 327 327 326 325 325 325 324 323 324 324 324 323 322 322 322 320 319 318 318 318 318 319 319 319 321 323 324 324 324 324 325 325 325 326 326 326 327 327 328 328 328 327 327 327 327 326 327 327 327 327 326 323 320 319 318 317 317 317 317 317 316 315 312 310 309 308
326 326 325 324 324 323 323 322 322 321 322 322 322 323 325 325 326 326 326 326 326 326 326 325 325 324 324 324 324 323 322 322 322 322 320 319 319 319 318 318 318 319 319 320 322 322 323 324 323 324 324 324 325 325 326 326 327 327 327 327 328 327 327 327 328 327 326 326 327 327 327 324 322 320 319 320 320 320 320 320 319 316 314 312 310
323 323 322 321 321 320 320 320 319 319 319 320 320 321 323 325 325 325 325 326 326 326 326 325 325 324 324 324 323 322 322 321 321 321 320 320 320 320 319 318 318 318 319 320 320 321 321 322 322 322 321 321 322 322 323 324 324 325 326 326 326 327 327 327 327 327 326 327 326 326 327 327 326 323 321 320 321 322 323 324 323 321 319 317 315
315 314 315 316 317 318 318 317 317 317 318 320 321 322 323 324 324 323 325 325 325 326 325 324 324 324 324 324 323 321 321 321 321 320 320 320 320 320 320 320 319 319 319 319 320 320 320 320 320 320 320 320 319 319 320 320 321 322 323 324 325 326 327 327 327 327 327 328 327 327 326 327 327 326 324 323 322 323 324 325 325 324 323 322 320
308 308 310 313 316 317 316 315 315 316 318 319 321 322 322 322 322 323 324 325 325 325 324 324 323 322 323 323 322 321 320 321 320 319 320 321 320 320 320 320 321 321 320 320 320 319 319 319 320 320 321 321 319 319 318 318 319 320 320 321 323 325 326 326 327 327 327 327 327 327 327 327 327 326 326 327 325 324 324 325 325 326 326 325 324
308 310 313 316 317 316 314 314 316 317 318 319 320 321 320 321 321 322 322 322 322 323 323 323 322 321 321 322 321 321 320 320 319 318 319 318 316 314 313 313 315 317 317 318 318 318 318 318 317 318 319 320 319 318 318 317 318 318 319 320 322 323 325 326 326 326 326 327 327 327 327 327 327 327 327 328 327 326 325 325 326 326 326 327 326
308 311 316 318 318 316 315 316 318 319 319 319 320 319 319 320 320 320 320 319 320 320 321 322 322 322 322 321 321 320 319 319 319 319 317 313 308 306 309 311 311 312 313 314 315 316 316 316 316 316 317 318 318 318 318 317 316 316 317 318 320 323 324 325 326 326 326 326 327 327 327 327 327 328 327 327 327 326 326 325 326 326 327 327 327
306 310 314 316 316 316 315 316 319 320 320 319 318 317 318 320 320 320 319 319 319 320 320 321 321 321 321 320 318 317 317 317 318 319 316 309 304 304 309 313 313 313 314 314 314 314 314 315 315 316 316 317 317 318 318 317 317 317 316 317 318 320 322 323 324 325 326 326 326 326 326 326 327 326 325 326 326 326 326 326 326 327 327 327 328
306 308 312 314 314 314 313 314 316 318 317 317 315 314 317 320 319 318 318 317 318 319 319 319 319 318 317 315 315 314 312 311 313 313 310 306 304 304 308 312 314 314 314 314 314 314 314 315 315 315 316 316 317 317 317 317 317 316 316 315 316 318 321 324 324 324 326 325 325 326 326 326 327 326 326 326 327 326 326 325 326 327 327 327 328
306 308 311 312 311 310 310 311 312 312 312 311 311 312 315 318 318 317 317 316 316 318 318 317 316 313 310 308 309 308 307 306 306 306 305 303 304 303 305 311 314 314 314 314 314 314 314 314 313 312 313 314 316 317 317 318 317 317 316 315 315 316 319 323 325 324 325 325 325 326 327 326 326 326 326 326 327 327 327 327 327 328 328 327 326
306 308 310 310 308 307 307 308 307 307 306 307 308 310 311 313 314 313 313 313 313 314 314 312 309 306 305 305 305 305 304 304 304 303 303 302 302 302 303 308 313 314 313 313 312 312 313 312 311 310 309 310 311 313 315 316 317 318 318 318 318 317 317 320 323 324 324 325 324 324 324 324 324 324 324 325 325 325 326 326 326 327 326 326 326
306 308 308 307 306 306 306 306 305 305 305 305 305 306 307 307 307 306 307 307 307 306 306 306 305 305 305 305 304 304 303 303 303 303 302 302 302 302 302 306 311 314 314 312 310 310 309 309 308 308 308 308 308 308 309 310 311 312 314 316 319 320 319 320 322 323 323 322 322 322 322 322 323 323 323 323 323 323 323 323 323 323 324 324 325
306 307 307 306 306 305 305 305 305 305 305 305 305 305 305 305 305 304 305 305 304 305 305 305 305 304 304 304 303 303 303 303 303 304 304 304 303 303 301 303 307 311 311 310 309 309 307 305 305 306 306 306 305 305 306 305 305 305 306 308 311 315 318 320 321 321 321 321 321 322 322 322 322 322 322 322 322 322 321 321 321 321 321 322 323
305 306 306 305 305 305 305 305 305 305 305 305 305 304 304 304 304 304 304 304 304 304 304 304 304 303 303 304 304 305 306 306 306 307 307 307 306 306 304 303 304 306 307 306 306 307 305 305 305 305 305 305 304 304 303 303 303 303 303 304 305 307 310 313 317 318 320 320 320 320 321 321 321 321 321 321 321 321 321 320 320 319 319 319 319
305 305 305 305 305 305 305 305 305 305 305 305 304 304 304 304 304 304 304 304 304 304 304 304 304 305 305 306 307 308 310 310 310 310 310 310 309 309 309 307 306 306 306 306 306 306 306 306 306 305 305 305 305 304 303 303 302 302 302 302 303 303 304 306 309 311 314 316 317 317 318 319 319 320 320 320 320 320 320 319 318 317 316 316 316
305 305 305 305 305 305 305 305 305 305 305 305 304 304 304 304 305 305 305 305 305 305 306 306 306 307 308 309 309 310 311 311 311 312 311 311 311 311 310 309 309 308 308 307 306 306 306 306 306 306 306 306 305 305 304 303 302 301 302 302 302 303 303 304 304 305 307 308 310 311 312 313 315 316 317 318 319 319 319 319 318 317 316 315 315
305 306 305 305 305 306 305 305 305 305 305 305 305 305 305 305 306 307 307 308 308 308 308 308 308 309 309 310 310 311 311 311 311 311 312 312 312 311 311 310 310 310 310 309 308 307 307 307 306 306 306 306 306 305 304 303 303 301 301 302 302 302 303 303 303 304 304 305 305 306 307 307 309 310 312 313 314 315 316 317 317 316 316 316 315
306 306 306 306 306 306 306 305 306 305 305 305 305 305 306 306 306 307 308 308 308 308 309 309 309 309 309 310 310 309 310 310 310 310 311 311 312 312 312 312 312 311 311 311 310 309 308 308 308 307 307 306 305 305 304 303 303 302 301 301 301 302 303 303 303 303 304 304 304 305 305 305 306 306 307 308 309 310 310 312 312 313 314 315 316
306 306 306 306 306 306 306 306 305 306 306 306 306 306 306 306 307 307 307 307 307 307 307 308 308 308 308 309 308 308 308 308 309 309 310 310 311 311 312 312 312 312 312 312 311 311 310 310 310 309 308 307 306 305 304 303 303 302 301 300 300 300 301 302 303 304 304 304 304 305 305 306 306 306 307 307 307 307 308 308 309 309 310 311 312
307 307 307 307 307 307 307 306 306 306 306 306 306 306 306 307 307 307 307 307 307 307 307 307 307 307 308 308 308 308 308 307 308 308 308 309 309 310 311 311 312 312 312 312 312 311 311 311 311 310 309 308 307 305 304 303 302 301 301 301 300 300 300 300 301 302 303 304 305 305 306 306 307 307 308 308 308 308 308 309 309 309 309 309 309
308 307 307 307 307 307 307 307 307 306 307 307 307 307 307 308 309 311 312 311 311 311 310 309 309 308 308 309 309 309 309 308 308 308 308 308 308 309 309 310 310 311 312 311 311 311 311 311 311 310 310 309 308 306 305 303 302 301 301 301 300 300 300 299 299 300 300 302 303 305 306 306 307 307 308 308 308 308 308 309 309 309 310 310 310
311 311 310 308 308 308 308 308 308 308 308 307 308 308 309 310 312 315 316 316 316 316 315 315 314 313 313 312 312 312 312 312 310 310 308 308 308 309 309 309 309 310 310 311 311 311 311 311 311 310 310 308 307 306 305 304 303 302 301 301 300 300 299 299 299 299 299 299 300 301 302 303 304 305 306 307 307 307 307 307 307 308 309 309 310
313 314 314 312 311 310 309 310 310 311 311 311 311 312 313 313 314 315 316 316 316 317 317 317 316 316 316 315 314 314 315 315 315 313 312 311 311 310 310 309 309 309 309 310 310 310 311 311 310 310 309 308 308 307 307 306 305 304 303 302 301 301 300 300 300 299 299 299 299 299 299 299 300 301 302 303 304 305 306 306 306 306 306 307 309
313 314 315 316 314 313 312 311 312 312 312 312 314 315 316 316 316 315 316 316 316 316 317 317 316 316 316 316 315 314 314 315 315 315 315 314 312 312 311 311 310 309 309 309 310 310 310 310 310 309 309 309 309 308 307 306 306 305 304 303 303 303 302 302 301 300 300 300 299 299 299 299 299 299 299 299 300 301 302 303 303 303 303 304 306
315 315 315 316 316 315 314 313 313 313 312 312 314 316 317 316 316 316 316 316 316 316 316 316 316 316 315 315 315 315 315 314 314 314 315 314 313 312 312 312 311 310 310 309 309 310 310 310 309 309 309 309 308 307 305 305 305 304 305 305 305 305 304 303 302 302 301 300 300 300 299 299 299 299 299 298 298 299 299 300 300 300 301 302 304
316 315 315 316 316 316 315 315 314 314 314 314 314 316 316 316 316 316 316 317 316 315 314 315 315 315 315 315 316 316 316 315 314 313 313 313 313 312 312 312 312 311 311 310 309 310 310 309 309 309 309 308 308 307 306 305 305 305 304 304 304 305 304 304 303 302 301 301 301 300 300 299 299 299 299 299 299 299 299 299 299 300 300 301 303
315 315 314 315 316 316 316 315 314 314 315 315 314 314 315 317 317 317 317 317 316 314 313 314 315 315 316 316 316 316 316 316 315 314 313 313 312 311 311 311 311 311 311 310 310 310 310 310 309 309 309 308 308 307 307 306 306 305 304 302 302 302 303 303 303 302 301 301 301 301 300 300 299 300 299 299 299 299 299 299 299 299 300 300 302
314 314 315 315 316 316 315 314 314 315 315 314 313 312 314 316 317 317 317 317 316 315 314 314 315 315 316 316 316 316 316 317 316 315 314 312 311 311 310 311 310 310 310 310 310 310 310 310 309 309 308 308 307 307 306 306 305 304 303 303 302 301 301 302 302 302 301 300 301 302 301 300 299 299 299 299 299 299 299 299 299 299 299 299 300
314 314 315 315 315 315 314 313 314 315 315 314 313 313 314 316 317 317 317 316 316 316 315 315 315 315 315 316 317 317 317 317 317 316 315 312 311 310 310 309 309 309 310 310 310 309 309 309 308 308 307 307 307 306 305 305 304 303 303 302 301 301 300 300 300 301 300 299 299 301 301 299 299 299 299 299 298 298 298 299 299 299 299 299 299
315 315 315 315 315 315 314 314 314 315 315 315 314 314 315 316 317 317 316 315 315 315 314 313 311 310 310 312 314 316 317 317 317 317 316 313 310 309 309 309 308 309 309 310 309 308 307 307 307 307 306 306 306 305 304 303 303 302 302 301 300 299 298 297 297 298 298 298 298 299 299 299 298 298 298 298 298 298 298 298 298 298 299 299 298
316 315 315 315 315 315 314 315 315 315 315 315 315 315 316 316 316 315 314 314 313 311 309 306 304 304 305 306 309 313 316 317 317 318 316 313 310 309 309 308 308 309 309 309 308 307 306 306 306 306 306 305 304 304 303 302 302 302 301 301 300 298 297 296 296 297 297 296 296 297 297 298 297 297 297 297 297 297 298 298 298 298 298 298 298
316 316 316 316 315 315 315 316 316 316 315 315 316 316 316 315 313 312 312 310 307 305 303 302 301 302 303 306 308 312 315 316 316 316 315 311 309 308 308 308 308 308 308 307 307 306 306 306 305 305 304 304 303 303 302 301 301 300 300 299 298 297 296 295 295 296 295 295 295 295 296 297 296 296 296 297 297 297 297 297 297 297 297 297 298
316 316 316 316 316 316 316 315 315 315 315 315 315 315 314 312 310 309 307 305 303 302 302 302 302 302 302 304 307 311 314 315 314 313 312 309 308 307 307 308 308 307 307 306 306 305 305 304 304 304 304 304 303 302 301 301 300 300 299 298 296 295 295 295 295 295 295 295 295 294 295 296 296 295 296 296 297 296 297 297 296 296 298 300 299
314 314 315 315 316 315 315 314 314 314 314 314 314 313 311 309 307 306 305 304 303 303 302 302 302 302 302 302 304 308 312 314 313 311 309 308 308 307 307 307 307 307 307 306 305 305 304 304 303 303 303 303 302 301 301 300 300 298 297 296 295 294 294 294 294 295 295 295 295 294 294 295 295 295 295 295 296 296 296 296 295 296 300 301 300
313 313 314 314 314 314 314 314 314 313 313 312 311 310 308 307 307 306 306 305 304 303 302 302 302 301 302 302 303 305 309 312 312 309 308 307 307 307 307 307 307 307 306 305 305 304 304 303 303 303 303 302 301 300 300 299 298 296 295 294 294 294 294 294 294 294 294 295 295 294 294 294 294 294 294 294 295 295 295 295 295 296 299 300 300
313 313 313 313 313 313 313 312 311 310 310 309 309 309 309 309 309 308 308 307 306 305 305 304 304 303 302 302 303 304 307 310 310 309 307 306 306 306 306 306 306 305 304 304 304 303 303 303 303 302 301 300 300 299 298 296 295 294 294 294 294 293 293 293 293 294 294 294 294 294 293 293 293 293 293 293 294 294 295 295 295 295 297 298 299
311 312 312 312 312 311 310 308 308 308 308 309 310 310 310 310 310 310 309 309 308 308 307 306 306 305 304 304 304 306 307 308 308 308 307 306 306 306 305 304 304 304 303 303 303 302 302 302 301 300 299 298 297 296 295 295 294 294 294 293 293 293 293 292 292 292 292 293 293 293 292 292 292 292 292 292 293 294 294 294 294 294 294 295 296
Wind_Speed
7 7 7 7 5 3 3 3 2 2 2 1 1 2 3 5 8 10 10 8 7 9 14 15 11 8 6 5 5 6 5 5 4 4 6 6 4 4 4 5 7 7 8 7 6 4 3 1 1 2 3 4 4 5 5 4 4 4 3 3 3 2 2 2 1 0 1 1 2 2 3 3 4 5 5 6 7 7 8 8 8 8 9 10 10
8 8 9 8 7 5 3 2 2 2 2 2 2 3 3 5 9 12 10 9 9 9 12 14 12 8 6 5 5 6 5 5 5 6 6 6 4 3 4 5 6 7 7 7 6 6 5 4 2 2 2 3 4 5 6 6 5 5 4 4 4 4 4 3 3 2 2 1 1 1 2 2 3 3 4 5 6 6 7 7 7 7 8 8 8
9 9 9 9 8 6 4 3 3 3 4 4 4 4 4 5 10 12 10 9 9 9 11 12 11 7 6 5 4 5 5 6 8 9 9 8 5 4 4 4 5 5 6 6 5 5 5 5 4 3 3 3 3 3 4 4 5 5 5 5 5 5 5 5 4 3 3 3 2 2 2 1 1 2 3 4 5 5 6 6 7 7 7 7 7
10 10 10 9 8 7 5 4 5 5 5 6 6 6 5 5 9 13 11 9 9 10 10 10 9 6 5 5 3 3 3 4 5 5 8 10 8 7 5 4 4 4 5 5 5 5 4 4 3 3 3 4 3 3 2 3 3 4 4 4 4 5 6 6 6 5 5 4 4 3 3 2 2 1 2 3 3 4 5 5 6 6 6 6 6
12 11 10 9 9 8 6 5 7 7 7 8 8 7 7 6 9 12 11 9 9 10 10 10 8 6 5 5 4 3 3 3 3 4 3 5 8 8 7 5 4 3 4 4 5 4 4 4 3 3 3 3 3 3 3 2 3 3 4 3 3 4 6 7 7 7 7 6 6 5 4 4 3 2 2 2 3 3 4 4 4 5 5 5 5
13 12 10 9 9 8 6 6 8 8 8 9 9 9 9 8 9 11 11 10 10 10 10 10 8 7 7 7 6 5 5 4 4 5 5 3 3 5 7 5 4 4 3 3 3 3 4 3 3 3 3 3 4 4 4 3 2 2 3 3 3 4 5 6 7 8 9 9 8 7 6 5 4 3 3 2 2 2 3 3 3 3 3 4 4
13 12 10 9 9 8 7 7 8 9 9 9 9 10 10 9 9 11 11 11 11 11 10 9 9 8 8 8 8 7 7 7 7 7 7 6 5 4 6 6 4 5 4 3 1 1 2 2 2 3 3 3 4 5 6 6 5 3 3 3 3 4 5 5 6 8 9 9 9 8 7 6 5 5 4 3 3 2 2 2 2 2 2 3 3
12 11 10 9 9 8 7 9 9 9 9 8 8 8 10 10 10 10 11 10 10 11 10 9 9 9 9 9 8 9 9 9 9 9 9 9 8 7 7 6 5 6 7 6 4 2 2 1 1 1 2 3 5 6 7 7 8 7 6 5 4 5 5 5 5 6 8 8 9 9 8 7 6 6 5 5 4 3 2 2 2 2 1 1 2
10 10 10 9 9 8 8 10 10 9 8 8 8 8 9 10 10 10 10 10 10 11 10 8 7 8 9 8 9 10 10 10 10 10 10 10 11 11 9 7 7 8 8 8 7 7 6 5 5 4 3 4 5 6 6 7 8 9 9 9 7 6 6 6 6 5 6 7 8 8 8 8 7 7 7 6 5 4 3 3 3 2 2 1 1
9 10 10 10 9 9 10 11 11 10 9 8 8 8 9 10 10 10 9 10 10 11 10 8 7 7 7 7 9 10 9 9 10 10 11 11 11 11 11 10 10 10 10 9 9 9 9 8 8 7 6 6 6 6 7 7 7 8 9 10 10 9 8 7 6 5 6 6 6 6 6 7 7 7 7 6 6 5 4 4 3 3 3 2 1
9 10 11 11 10 9 11 11 11 11 9 8 9 10 11 11 11 10 9 9 10 10 10 9 8 7 6 7 8 9 9 10 12 11 10 9 8 9 10 11 11 10 9 10 10 10 10 10 10 9 9 8 7 7 7 7 7 7 8 9 10 10 10 9 6 5 6 7 7 6 5 5 6 7 7 6 5 5 4 4 4 4 4 3 3
8 9 10 11 11 11 11 11 11 11 9 8 9 10 11 12 11 10 9 9 9 10 9 9 8 6 7 8 8 9 10 10 9 9 8 6 6 7 6 8 10 8 9 11 11 12 12 12 12 12 12 12 11 10 9 7 7 8 8 8 9 10 11 10 7 6 7 7 7 7 6 6 5 5 6 5 4 4 4 3 3 4 4 4 4
7 8 8 9 11 11 11 10 10 10 9 9 9 10 12 13 12 10 10 9 9 10 10 9 8 7 8 8 7 7 7 6 5 6 6 5 5 5 4 6 9 10 10 11 11 11 12 12 13 13 13 14 14 13 12 10 9 9 10 10 10 10 11 11 10 9 8 7 7 7 6 6 6 5 4 4 3 3 3 3 3 3 4 5 5
6 7 7 8 9 10 10 9 9 9 9 9 9 10 12 12 11 10 10 9 10 11 11 10 10 9 8 6 4 3 4 5 5 4 3 3 3 3 3 4 6 8 9 10 9 9 10 10 11 11 13 14 16 16 14 12 10 10 12 13 12 12 12 12 11 12 12 10 8 7 6 5 6 5 4 3 3 2 2 2 2 2 3 4 4
6 7 7 7 8 9 9 9 9 8 8 9 9 10 11 11 10 10 10 10 11 11 11 10 10 9 8 7 5 2 1 1 1 1 1 2 2 2 3 4 4 4 6 7 8 8 8 9 9 10 11 11 14 16 15 13 11 11 13 15 15 13 13 14 14 13 13 13 12 11 8 6 6 6 5 3 2 2 2 2 2 2 2 2 3
5 5 5 5 6 6 7 7 6 7 8 9 9 10 10 10 9 9 8 9 10 10 9 9 10 10 8 7 4 2 3 3 2 3 2 2 1 2 5 6 5 3 3 5 7 7 8 9 9 9 9 9 10 12 13 14 14 14 14 17 17 16 14 14 14 14 14 14 15 14 13 11 8 8 6 5 3 2 2 3 3 3 3 2 2
5 5 5 5 5 5 4 4 5 6 8 9 9 9 9 9 9 8 7 7 7 7 7 9 10 10 9 6 4 3 4 2 3 4 2 1 1 2 4 4 4 3 3 4 5 7 7 8 8 8 8 8 8 9 11 13 14 14 14 16 19 18 17 16 15 15 15 16 16 16 16 15 12 10 9 8 6 5 5 5 5 5 5 4 3
6 6 6 6 5 4 4 4 5 6 7 7 8 8 7 8 7 6 5 5 5 4 5 7 6 6 7 6 3 2 1 1 1 2 1 1 1 3 2 2 3 3 3 4 5 5 6 6 7 7 7 7 7 8 10 11 13 14 13 15 17 18 19 18 17 17 18 18 18 18 18 18 17 15 13 12 11 9 8 8 8 7 6 6 5
4 3 3 3 3 3 3 3 4 4 5 5 5 5 5 4 4 4 4 3 3 3 2 3 2 3 5 4 2 1 1 2 1 1 1 3 4 4 3 1 2 2 3 4 4 4 4 5 6 7 8 7 7 9 10 11 13 14 14 14 15 17 19 19 19 19 20 20 20 20 20 19 19 19 17 17 16 14 11 10 10 9 9 8 8
2 2 3 3 3 2 1 2 2 2 3 2 2 2 3 3 2 2 2 2 2 3 3 2 3 4 4 3 2 1 2 3 4 4 6 6 6 7 6 2 2 2 2 3 4 4 4 5 6 7 7 7 8 9 9 11 12 13 15 16 16 15 16 16 18 20 21 22 22 21 21 19 20 21 20 20 19 17 15 14 13 13 12 12 12
2 2 4 5 4 2 2 2 3 3 3 3 3 3 4 5 5 5 5 4 3 3 3 3 4 5 4 4 3 3 4 5 6 6 7 6 6 8 9 5 4 6 5 4 3 3 3 4 4 4 5 5 6 7 7 8 10 10 12 15 16 16 15 15 16 18 20 21 23 24 22 19 19 20 21 21 20 18 17 16 17 16 15 16 16
3 3 4 5 4 2 2 4 6 6 5 5 4 4 5 7 8 8 8 8 7 6 6 5 6 6 6 6 6 5 4 5 5 4 4 5 6 8 10 9 11 13 11 10 9 8 7 6 6 5 5 5 4 4 5 6 8 9 10 12 13 12 14 14 14 16 15 14 17 19 17 17 17 18 20 20 19 19 18 17 18 18 18 18 18
3 4 5 5 3 3 3 4 6 6 5 4 4 5 7 9 9 9 9 9 10 10 10 10 10 8 7 6 5 3 3 3 3 2 3 4 5 7 9 10 12 14 13 12 11 10 9 8 8 9 8 7 5 5 5 5 7 9 10 11 11 9 10 11 11 12 10 7 10 9 6 9 13 15 16 15 15 17 17 17 17 18 18 18 17
4 5 5 4 3 3 4 4 5 5 4 4 5 6 8 9 8 8 8 8 9 10 10 10 8 6 5 4 3 3 3 4 3 3 4 4 4 6 9 10 11 13 12 11 10 9 8 9 10 10 9 8 7 7 7 7 8 9 10 10 10 9 10 10 10 8 5 4 6 5 3 4 6 7 9 8 9 11 14 15 16 17 18 18 18
5 6 5 5 4 5 5 6 6 7 6 7 7 7 7 7 7 7 7 7 8 8 8 7 6 5 5 5 5 4 4 5 5 5 5 5 5 6 8 10 10 11 10 8 7 7 6 7 9 9 9 9 8 8 8 9 10 11 12 12 11 11 11 11 10 8 6 5 5 5 5 5 5 6 6 5 4 5 8 10 11 14 16 17 17
6 7 6 6 6 6 7 8 9 9 10 10 10 9 9 8 8 8 8 8 8 8 7 7 6 5 6 6 6 6 6 6 7 7 8 7 6 7 7 9 10 10 7 6 5 5 6 6 7 8 9 9 9 9 9 10 11 12 12 12 12 12 10 11 10 9 9 9 9 7 7 7 6 6 6 6 5 4 5 6 6 8 10 11 13
7 8 7 7 7 7 8 8 9 9 10 10 11 11 10 10 10 10 9 9 8 7 6 6 6 6 7 7 8 8 9 9 10 10 11 10 10 10 8 7 9 9 6 5 3 4 6 7 7 7 8 10 10 11 11 12 12 12 12 12 12 12 11 10 9 8 9 11 11 10 10 9 8 8 8 8 8 7 7 7 7 8 9 10 11
8 9 8 8 7 7 8 8 9 9 9 9 9 10 10 10 10 9 9 9 8 7 7 7 7 8 9 10 10 11 11 12 12 12 13 13 12 12 10 8 8 9 7 5 4 5 6 6 7 7 8 10 11 11 12 13 13 12 12 12 11 11 11 11 10 9 10 11 12 12 12 11 10 10 9 10 11 11 11 11 11 11 11 12 13
9 9 9 8 8 8 8 9 9 9 9 9 9 10 11 11 11 11 10 11 10 10 10 10 10 10 11 11 11 11 12 12 12 12 12 12 12 12 11 10 10 9 9 8 7 8 7 7 8 9 10 10 11 11 12 13 13 13 12 11 11 10 10 10 10 11 11 12 12 13 13 13 13 13 12 12 13 14 14 14 14 14 14 15 15
10 10 10 9 9 8 8 9 9 9 9 10 10 11 12 12 12 12 12 13 12 12 11 11 11 11 11 11 10 10 10 11 11 11 11 11 11 11 10 10 10 10 10 10 9 9 9 10 10 11 11 12 12 12 12 12 12 12 12 11 11 10 10 10 10 11 11 12 13 13 14 14 14 15 15 15 15 16 17 17 17 16 16 17 17
10 10 10 10 10 10 10 9 9 9 9 9 10 10 11 11 12 13 13 12 11 11 11 10 9 9 9 8 8 7 7 8 8 8 8 8 8 8 9 9 9 9 10 10 9 9 10 11 12 13 13 14 14 13 12 12 11 11 10 10 10 10 10 11 11 11 11 11 12 12 12 12 13 14 15 15 16 17 18 19 19 19 18 18 18
10 10 10 10 10 10 10 10 9 8 8 8 8 9 9 9 10 10 10 11 10 9 8 8 7 6 6 5 4 4 4 4 5 5 6 6 6 6 7 7 7 8 8 9 10 11 12 13 14 15 15 15 15 14 13 12 12 11 10 10 10 10 10 11 11 11 11 11 11 11 11 11 11 12 13 14 15 16 17 19 20 20 20 20 20
11 10 9 9 9 9 9 8 8 8 7 7 7 8 8 8 8 7 7 7 6 6 5 5 4 4 3 2 2 1 1 1 2 2 3 3 4 4 5 6 6 6 7 8 9 10 12 13 15 16 17 17 17 16 16 15 14 13 13 12 11 10 10 10 10 11 12 12 12 12 12 11 11 11 12 12 13 14 15 16 17 18 19 20 21
11 10 10 9 8 7 7 6 6 6 5 5 5 6 6 5 5 4 3 3 3 2 2 2 1 1 2 2 2 2 2 2 3 3 3 3 4 4 5 6 6 6 7 8 9 10 11 12 14 16 17 18 18 18 18 18 17 16 15 15 14 13 11 11 10 10 11 12 12 13 13 12 12 12 12 12 12 13 13 14 15 16 16 17 18
12 11 11 10 9 8 7 6 6 5 5 4 3 3 3 3 3 3 2 2 2 2 2 2 2 3 3 3 4 4 4 4 4 4 4 4 5 5 6 7 7 7 7 8 9 11 11 12 13 15 16 18 18 19 20 19 19 18 17 16 15 15 14 14 13 11 11 11 12 13 13 14 14 14 14 14 14 14 14 14 15 15 15 16 17
14 14 13 12 11 10 9 8 8 7 7 6 5 3 2 2 1 1 1 1 1 1 2 2 3 4 4 5 5 6 6 6 7 6 6 6 6 7 8 8 8 8 8 9 10 11 12 13 14 15 16 17 19 19 19 19 19 19 19 18 16 15 15 15 15 14 13 12 12 12 13 15 15 16 17 17 17 18 18 17 17 17 17 17 17
18 17 15 15 13 12 12 11 10 10 9 8 6 5 4 4 3 2 2 4 5 5 4 4 5 5 5 6 7 8 8 8 8 8 8 8 8 9 10 10 9 10 10 10 11 12 13 14 14 15 15 17 18 19 20 20 21 21 21 20 18 17 15 15 16 16 15 15 15 13 13 14 15 16 17 19 20 21 21 22 22 21 20 19 19
23 20 19 19 17 16 15 14 13 12 10 9 8 7 7 6 6 6 5 7 9 9 9 9 9 9 9 9 9 10 11 10 10 10 10 10 10 10 11 11 10 10 10 11 11 12 14 15 15 15 16 17 18 19 20 21 22 23 22 22 21 19 18 18 18 18 18 18 18 17 17 16 16 16 17 18 20 21 23 24 25 25 25 23 22
24 20 21 22 21 20 18 16 15 14 13 13 12 10 9 9 9 9 10 11 12 12 13 12 12 13 12 12 13 13 14 13 13 13 13 13 12 12 12 12 11 11 11 11 11 12 14 15 16 17 18 19 20 20 20 20 21 22 23 23 22 22 22 22 23 23 22 21 20 19 19 19 19 19 19 19 19 20 22 23 25 26 26 25 24
24 20 22 25 25 23 20 17 16 15 14 14 13 11 12 12 12 13 14 15 15 14 14 13 14 14 15 15 15 16 16 16 16 16 16 15 14 14 14 14 13 13 13 13 13 13 14 16 17 18 19 20 20 20 20 21 22 22 23 23 24 24 24 24 25 26 26 25 24 22 21 22 22 21 21 21 21 21 21 22 23 24 24 25 25
27 24 24 26 26 25 21 17 16 18 19 18 15 12 12 13 15 16 16 17 17 17 16 15 16 16 17 17 16 16 17 17 18 18 18 19 18 16 15 15 15 14 14 14 15 15 16 16 17 18 19 20 20 21 21 22 23 23 24 25 25 25 25 25 25 26 27 28 27 26 26 26 25 24 24 23 23 22 22 22 23 23 23 24 25
29 29 28 29 29 27 24 20 19 22 24 21 17 15 15 17 18 18 17 19 21 20 18 18 18 18 17 18 17 17 17 18 18 19 20 21 21 18 17 17 17 16 16 16 16 17 17 18 18 19 20 21 22 23 23 23 23 24 25 26 28 28 28 27 26 26 27 29 29 28 27 28 29 28 27 25 25 24 23 23 24 24 24 24 25
26 28 28 29 30 28 26 24 22 23 24 22 19 18 19 20 20 20 21 22 21 19 18 18 18 18 18 18 18 18 18 18 19 20 20 22 22 20 19 19 18 17 17 18 18 18 18 18 18 20 22 23 23 24 25 25 26 26 27 28 30 31 32 32 31 29 29 31 33 30 28 29 30 30 29 28 28 26 24 23 23 23 24 24 24
21 21 20 21 24 25 27 25 22 20 21 22 21 20 20 20 20 20 20 19 17 17 18 19 19 19 19 19 18 18 18 18 19 20 20 21 22 21 20 20 19 18 19 19 19 19 18 18 19 21 22 24 25 26 26 27 27 28 29 30 32 33 34 34 35 34 33 34 35 34 30 29 30 31 30 30 30 28 25 24 23 23 23 23 23
17 17 16 16 19 22 25 24 20 18 18 19 20 19 19 19 18 16 15 16 17 18 19 18 17 16 16 16 16 16 16 17 17 18 17 19 22 22 21 21 20 19 20 20 20 19 19 19 20 22 23 24 25 27 27 28 29 30 31 32 33 35 35 35 35 36 36 36 36 36 33 30 31 33 31 30 30 29 26 24 22 21 21 21 22
15 16 16 16 17 19 21 20 17 16 16 17 17 16 15 14 13 14 16 17 17 16 14 13 13 12 13 13 14 14 14 15 14 12 13 16 20 21 20 20 20 20 20 20 20 20 20 20 21 22 24 25 27 28 29 29 30 31 32 34 35 35 36 36 36 36 36 35 35 36 35 32 32 34 32 30 29 28 27 24 21 19 19 18 18
14 15 15 15 16 16 17 16 15 14 14 13 12 11 11 11 12 13 13 12 11 10 9 10 10 11 11 11 11 11 11 11 8 7 9 14 18 20 20 21 20 20 20 20 20 20 21 21 22 22 25 27 28 29 29 29 31 32 33 34 35 35 36 36 36 35 35 34 33 35 36 34 32 32 32 29 28 28 26 23 20 16 13 12 14
14 14 14 14 14 14 14 13 13 12 12 12 11 10 10 9 9 9 8 7 7 8 8 9 10 10 11 10 9 8 7 6 6 6 11 15 18 19 20 20 19 20 21 21 21 21 22 22 22 24 26 28 29 28 28 30 31 33 34 34 34 34 35 36 37 36 35 34 33 32 33 33 31 31 32 30 28 28 26 23 18 11 6 9 12
12 12 12 12 12 12 12 11 11 11 11 11 10 9 8 6 6 7 8 8 8 8 9 9 9 10 10 9 9 7 5 5 6 9 13 16 17 18 18 19 20 21 21 21 21 22 22 23 25 27 28 28 28 29 29 30 31 32 33 33 33 33 34 36 37 37 36 35 32 29 30 31 30 30 32 31 29 28 26 22 15 9 10 13 15
12 12 12 12 12 12 12 11 11 11 10 9 8 7 6 6 7 8 8 9 9 10 10 10 10 10 10 9 8 7 6 6 7 10 13 15 17 17 18 19 20 20 20 21 21 22 23 25 26 27 27 27 28 28 29 30 31 31 32 32 32 32 33 33 35 36 36 34 29 26 28 30 30 29 30 32 32 29 25 20 14 11 13 16 17
12 13 12 12 12 12 11 11 10 9 8 7 6 7 7 7 8 8 9 10 10 11 11 12 11 11 10 9 8 7 6 7 8 11 13 15 16 17 18 18 19 20 20 21 21 22 24 25 26 26 26 27 28 29 29 30 30 30 31 31 31 31 31 32 32 33 34 33 28 26 28 30 30 29 29 29 31 30 26 23 20 17 16 17 18
Wind_Direction
232 236 243 254 262 270 264 244 240 228 218 221 202 190 188 178 171 166 160 159 165 177 187 189 184 189 201 197 201 203 190 173 170 156 137 129 120 117 123 112 100 94 90 87 89 97 96 89 285 286 283 291 293 293 299 307 306 293 290 293 291 280 270 268 258 280 33 34 38 46 49 54 55 57 57 57 59 58 58 57 53 52 53 54 54
234 234 240 248 255 260 259 247 239 217 208 206 195 196 185 175 172 166 163 169 176 182 188 193 194 197 209 212 205 200 202 192 190 181 157 146 140 133 136 126 113 104 96 88 85 86 80 72 61 17 333 321 308 299 296 300 302 291 279 276 280 279 271 267 259 253 250 264 311 351 14 28 41 47 50 50 50 51 53 53 50 47 46 48 50
237 237 238 243 251 255 257 256 238 207 204 210 206 211 200 179 178 174 173 179 183 183 184 190 196 200 204 207 195 179 190 201 206 194 174 168 159 147 147 135 123 116 108 98 89 87 84 78 71 56 32 15 2 337 315 311 306 295 282 268 263 265 262 259 256 253 250 250 257 276 303 326 358 19 33 40 40 41 44 48 47 45 41 40 41
240 242 241 243 248 251 261 258 234 208 200 211 213 218 214 192 186 186 187 189 189 186 185 189 196 205 208 210 208 189 198 215 236 221 189 182 168 154 157 148 130 118 110 104 95 90 90 86 79 64 47 31 23 21 3 347 334 317 301 271 245 248 250 247 248 248 249 248 248 253 263 273 290 324 354 18 26 29 31 38 43 43 39 34 34
243 245 243 245 248 249 259 249 230 212 200 209 214 219 217 204 196 197 198 200 201 199 197 198 201 215 221 218 217 217 232 245 277 296 264 203 177 167 164 152 141 128 110 97 87 84 81 71 67 57 47 34 22 19 16 7 5 358 332 292 244 246 248 243 241 242 245 245 244 246 250 256 262 272 295 340 0 9 16 25 34 43 41 34 32
245 243 241 243 247 249 252 239 228 212 202 209 214 217 216 210 207 205 208 213 216 214 211 212 215 226 232 233 233 231 245 258 263 278 298 293 228 198 185 169 155 149 140 114 83 75 74 62 47 36 30 20 8 0 353 343 348 6 353 315 266 263 264 255 247 241 243 244 244 244 245 249 253 260 270 285 314 339 353 4 15 32 42 39 34
241 238 238 237 239 246 243 227 219 207 201 208 213 214 211 209 210 211 217 222 225 225 223 229 237 242 243 244 246 245 247 254 262 266 272 281 285 246 209 195 179 177 187 183 164 94 68 68 45 25 13 356 346 342 338 332 329 333 341 324 288 280 281 274 264 254 250 247 246 247 248 251 253 255 258 262 273 296 316 331 345 4 23 37 39
231 229 232 230 230 241 234 214 208 200 198 206 207 208 208 209 210 212 219 223 229 232 233 238 247 253 256 258 257 259 259 257 262 266 264 266 269 251 220 206 211 214 214 217 228 253 283 289 287 327 333 328 324 321 323 327 331 332 334 333 315 296 291 289 285 274 266 259 254 254 253 253 256 259 258 259 263 269 281 286 295 310 340 11 27
224 223 227 224 226 235 221 203 198 195 198 207 208 208 209 213 215 214 219 224 231 241 247 249 251 253 256 266 268 264 265 266 266 266 265 266 267 260 238 215 225 239 238 238 252 263 270 274 263 256 268 290 308 311 309 313 320 321 322 329 330 324 311 303 303 298 288 278 266 262 260 255 255 260 261 262 264 266 268 264 261 262 273 305 348
227 226 227 222 225 228 212 201 201 201 205 209 212 214 213 216 219 218 225 233 236 245 254 258 258 258 260 276 275 264 262 268 273 276 277 272 268 267 256 240 232 236 248 254 260 265 269 273 268 260 259 268 290 302 305 309 313 310 305 308 315 326 331 318 308 314 318 312 299 281 269 263 259 261 263 262 264 266 265 260 253 251 249 253 258
235 232 229 225 226 223 211 208 212 214 216 216 218 221 219 220 221 222 228 236 243 250 257 261 261 264 272 280 277 273 277 280 281 283 288 287 277 275 271 266 254 238 248 261 264 267 268 269 269 262 253 251 262 274 288 299 306 307 302 296 293 300 318 323 319 332 339 334 328 320 298 283 271 266 267 265 267 267 263 259 250 246 241 237 237
230 233 230 227 225 216 210 213 217 219 223 227 227 226 224 223 224 231 234 235 243 248 253 261 263 266 269 272 277 284 286 284 284 286 294 299 289 286 284 280 278 267 262 265 266 268 267 266 267 263 254 250 251 251 253 261 275 286 290 291 285 283 295 307 310 323 338 336 329 327 320 311 298 282 278 274 270 267 260 255 248 241 236 229 228
223 227 224 219 216 211 212 217 216 216 223 231 230 227 225 222 225 234 239 239 243 245 248 251 254 260 264 269 279 288 292 289 291 294 294 298 302 309 311 283 278 278 273 269 267 268 269 271 271 269 264 261 259 255 251 248 254 268 274 276 277 276 278 284 287 287 296 316 322 321 320 316 310 301 291 277 263 256 251 254 253 241 233 228 226
212 211 204 197 199 206 215 218 217 219 226 233 233 229 226 225 230 237 237 237 240 242 242 241 245 248 248 247 249 277 300 295 288 294 298 322 349 354 341 297 280 279 276 273 271 270 272 277 281 281 276 270 266 264 262 255 252 266 276 276 274 274 275 276 277 273 271 280 290 303 312 307 301 298 287 269 253 252 256 257 259 249 235 229 226
207 206 205 204 207 215 221 222 225 226 226 233 235 233 231 231 237 241 238 238 244 246 242 241 241 237 228 214 206 230 281 265 276 300 56 42 22 8 358 349 333 303 279 273 272 274 277 282 289 292 289 281 269 263 261 257 258 266 271 274 271 266 269 272 274 276 277 275 275 281 289 292 292 290 282 265 253 273 294 293 278 265 255 241 231
192 199 207 213 215 215 217 216 220 222 223 228 229 230 232 232 235 237 236 237 244 247 246 246 239 231 223 203 188 158 143 126 100 117 110 71 11 344 351 355 356 341 296 279 274 274 276 281 286 290 296 295 281 271 266 261 261 262 261 264 264 257 256 265 274 277 278 278 278 277 276 278 280 280 276 264 254 270 290 293 291 281 274 270 261
203 211 216 220 220 211 210 212 217 222 221 221 221 223 227 228 230 229 228 232 235 236 243 247 238 229 222 198 164 142 145 109 88 116 102 28 294 330 343 346 345 342 325 301 288 286 285 289 295 298 300 299 294 291 284 275 271 271 268 264 264 261 257 260 265 266 266 269 274 272 271 272 272 269 266 260 253 252 259 272 282 284 284 280 272
234 242 239 236 233 224 228 232 236 233 224 221 219 219 223 228 236 235 227 227 234 241 249 252 242 217 209 203 196 189 186 350 78 111 60 23 16 353 353 349 336 338 338 325 311 307 307 310 311 309 305 302 299 294 290 286 281 281 281 274 267 264 264 265 264 263 263 265 269 268 265 266 266 262 258 256 253 250 253 263 270 277 282 280 275
240 245 232 226 223 224 234 239 243 235 224 225 221 216 217 222 238 241 230 221 226 230 231 244 228 174 184 190 204 231 287 333 356 54 115 104 63 48 51 13 301 308 322 320 318 315 315 315 311 307 303 300 297 293 292 291 287 286 288 283 272 267 270 272 271 269 265 266 270 270 265 261 261 259 257 256 253 248 247 256 263 267 273 274 272
239 204 173 172 190 214 218 217 224 214 211 214 201 184 169 156 151 170 172 136 159 181 171 154 135 139 152 157 159 102 38 27 40 71 103 103 79 71 71 44 299 323 318 309 315 313 313 312 307 305 301 296 293 289 289 293 300 305 301 292 285 282 281 277 274 272 268 265 267 270 269 265 264 262 262 264 263 257 250 249 253 254 260 265 264
244 209 176 174 188 196 155 156 164 154 151 147 140 133 123 118 118 118 111 110 125 142 148 145 129 127 130 127 107 79 64 58 70 88 90 75 60 76 89 96 87 77 75 68 51 29 13 1 347 335 323 313 305 291 284 290 303 315 314 304 297 292 289 285 279 275 274 272 268 267 266 266 270 272 270 270 268 264 258 256 257 255 258 266 269
241 220 188 179 182 177 150 153 156 150 149 149 142 130 125 120 118 118 114 113 117 118 123 124 116 112 115 112 98 85 78 68 79 88 56 31 41 80 104 110 99 94 91 86 83 77 68 57 44 34 23 8 348 311 290 290 298 307 313 311 307 302 298 298 290 278 278 283 279 274 270 268 274 276 275 272 266 261 259 261 264 263 264 270 276
205 191 174 169 168 163 155 152 155 159 167 170 162 146 143 140 131 125 122 116 111 111 114 116 113 111 109 108 105 95 82 68 67 41 12 17 47 89 115 120 110 105 99 94 90 83 76 66 55 49 42 32 18 356 328 307 301 302 304 303 304 316 319 316 305 284 272 280 291 297 293 271 267 268 271 272 264 258 259 263 266 269 272 275 279
163 155 158 160 150 136 131 136 143 147 150 144 134 134 142 148 145 138 134 125 117 116 118 118 112 109 107 104 102 89 65 55 44 23 17 26 52 94 123 136 128 117 109 101 93 84 75 62 54 48 42 36 24 8 353 337 325 318 315 311 303 307 316 315 308 295 280 278 292 313 327 296 288 289 289 285 269 260 261 265 268 269 271 273 275
151 146 148 140 127 121 118 122 122 117 116 117 118 123 130 140 144 144 143 137 132 128 125 119 106 98 100 94 88 78 63 56 50 44 47 47 54 86 126 148 142 131 122 104 86 75 65 53 43 35 29 28 21 8 355 344 340 335 332 333 326 315 308 303 299 299 303 308 314 328 333 334 346 339 324 315 298 276 270 268 268 266 264 264 265
147 146 147 136 126 125 121 119 117 112 111 111 113 116 119 123 125 125 125 126 126 123 116 112 103 96 93 88 83 78 71 66 62 59 59 59 64 82 118 143 144 144 140 114 89 62 47 38 26 18 13 10 6 359 350 344 342 341 338 339 337 328 315 306 305 305 304 310 323 336 333 329 333 328 318 314 304 287 277 271 269 267 262 259 259
150 151 152 146 138 134 130 126 123 118 115 112 112 112 113 115 115 113 114 113 111 111 108 105 102 98 94 91 88 83 78 72 69 66 65 68 73 80 101 128 135 137 134 118 101 49 38 30 12 4 2 2 358 352 349 345 342 342 340 339 338 333 327 324 323 317 305 303 308 314 315 312 308 305 302 299 294 287 279 272 269 268 267 265 263
153 156 157 155 149 145 142 138 135 130 125 120 116 114 112 112 112 111 111 111 109 109 108 108 107 103 99 95 90 87 83 79 76 73 70 71 73 76 87 101 115 123 121 108 85 50 38 27 13 4 0 0 358 354 350 344 340 340 338 337 335 331 327 324 320 315 307 300 295 295 299 298 295 293 291 289 289 288 286 284 282 280 279 278 276
153 155 159 160 157 155 151 147 144 139 132 126 120 115 112 110 109 109 108 107 109 111 110 110 109 105 100 96 91 88 85 80 76 72 68 68 67 69 77 86 95 106 105 92 69 49 34 22 16 8 3 1 357 354 350 344 341 340 337 334 331 327 322 316 309 303 298 294 290 289 288 286 284 282 280 278 280 281 283 283 283 284 286 286 283
157 156 159 163 162 160 160 155 148 143 138 133 126 119 116 115 113 112 110 107 110 113 112 111 111 109 104 99 96 90 83 77 73 69 66 63 60 61 68 76 82 87 89 80 62 46 31 18 14 10 5 1 358 354 350 345 342 339 337 334 332 330 324 317 310 303 297 292 289 288 287 284 281 278 276 275 274 275 277 277 278 280 284 286 285
164 161 161 163 163 163 163 163 158 151 145 139 133 127 123 122 120 118 115 111 111 113 113 114 115 113 110 107 102 92 81 74 68 64 60 56 53 51 53 59 62 66 70 66 53 39 25 14 11 7 2 0 359 355 351 347 344 341 339 334 332 330 324 317 311 306 303 299 295 292 290 288 285 282 279 277 276 275 276 277 278 279 280 280 281
178 175 173 170 170 170 169 168 167 162 155 149 143 136 130 128 125 123 122 120 120 119 118 119 120 118 120 118 108 92 78 69 59 53 49 46 39 31 31 34 38 40 42 43 40 29 16 8 4 359 357 356 353 352 352 351 348 346 344 340 335 328 320 314 310 306 303 302 301 299 297 295 291 287 284 282 282 281 279 280 280 280 280 278 275
195 191 188 185 182 181 180 176 176 175 169 162 155 146 139 135 132 127 127 127 127 126 119 116 116 112 112 105 83 68 56 32 25 26 21 19 12 0 359 0 6 13 16 20 25 21 11 2 357 353 351 349 347 347 350 351 350 349 348 347 342 333 323 314 308 304 301 300 299 298 298 297 295 292 290 287 286 285 284 284 284 284 283 281 278
208 205 203 201 198 194 193 189 186 186 182 176 165 155 146 139 132 121 115 110 101 94 82 68 59 56 48 37 19 357 332 307 303 315 320 330 336 329 325 325 329 341 353 359 4 6 3 357 352 348 344 343 343 344 346 348 350 350 347 344 342 340 335 327 317 307 299 296 293 292 291 291 291 290 289 288 286 286 285 285 285 286 286 286 284
211 212 213 210 209 206 203 205 210 214 215 212 203 182 160 135 110 88 77 68 57 46 32 12 352 349 350 353 350 343 334 323 313 313 313 315 319 313 308 307 311 320 333 342 347 351 352 350 346 343 340 340 340 341 343 344 345 345 343 343 342 340 338 334 328 320 309 300 293 289 287 285 285 284 283 283 283 283 283 284 284 284 284 284 284
213 214 215 214 213 209 207 210 217 221 222 222 223 225 217 186 143 95 39 353 344 354 356 346 334 333 333 334 334 329 328 329 326 324 320 317 317 316 313 311 312 315 319 328 336 340 342 342 341 339 339 338 338 338 338 338 337 338 339 339 339 337 337 335 331 326 322 316 307 298 291 287 284 282 281 280 280 281 282 283 284 283 282 281 280
218 220 219 216 214 211 209 210 214 218 217 215 213 214 215 214 214 222 294 309 302 289 287 296 301 304 307 313 315 311 312 320 324 324 320 315 314 315 315 315 314 314 315 319 326 332 336 337 336 335 335 335 334 333 333 332 331 331 331 332 331 330 329 330 329 326 325 323 320 313 306 299 292 288 284 281 279 279 279 281 282 283 283 280 277
220 224 227 227 223 219 216 214 218 224 226 224 219 213 214 222 234 242 265 291 295 288 281 279 281 284 283 284 288 290 293 298 304 308 309 308 307 307 309 312 313 314 314 316 320 327 332 334 333 332 331 331 331 330 330 329 328 326 325 323 323 323 323 323 325 325 325 324 321 319 315 311 306 301 296 291 286 282 280 280 281 282 282 280 276
224 226 233 239 235 230 229 227 226 230 236 239 234 229 234 240 247 253 263 278 288 287 282 276 276 280 280 278 275 275 279 282 286 290 293 295 297 298 300 304 309 312 312 311 314 321 328 331 332 331 331 331 331 330 328 327 324 322 320 318 317 319 320 322 323 324 324 323 320 317 316 313 311 308 305 302 298 291 286 282 280 280 281 279 276
226 228 235 242 244 241 238 236 235 236 243 249 246 246 253 254 257 264 267 272 282 284 278 273 274 276 278 277 272 270 271 273 277 280 284 286 286 286 289 293 299 304 305 304 306 312 320 326 329 332 333 332 329 326 324 323 322 322 323 322 321 319 318 320 322 322 321 320 318 316 315 313 310 308 306 304 301 298 294 289 285 281 279 277 275
230 233 236 241 246 244 239 241 246 246 252 260 253 248 258 264 268 271 268 270 283 286 277 274 277 278 277 277 274 270 267 267 269 272 276 279 278 277 279 283 288 291 294 295 296 301 308 316 323 328 331 329 326 322 320 320 322 325 326 326 324 322 319 318 318 320 321 319 315 314 316 316 313 310 308 305 302 299 297 295 291 286 282 278 274
235 240 243 244 245 240 237 246 251 246 249 255 246 242 261 275 278 277 272 277 287 287 280 280 283 282 281 280 277 272 266 262 262 264 268 271 273 273 273 275 277 281 286 290 290 292 298 308 317 323 326 327 325 321 319 319 322 325 326 326 326 325 323 320 317 319 322 319 314 312 314 317 316 312 310 308 305 303 301 298 294 291 287 284 279
240 245 250 248 242 236 236 246 253 249 248 249 247 255 270 278 281 280 278 281 285 283 282 284 285 285 284 283 280 275 269 263 259 259 261 263 266 268 268 268 269 274 280 285 286 287 293 305 316 322 324 325 323 320 318 319 321 324 326 327 327 326 326 324 322 322 323 321 317 314 314 317 316 312 310 310 308 307 306 303 299 295 291 288 285
243 249 254 249 240 236 237 243 252 254 248 247 254 264 272 275 277 278 277 279 281 283 286 288 287 286 284 281 280 277 273 267 260 257 257 257 257 258 259 260 263 270 278 284 284 286 295 308 317 320 321 321 319 317 317 317 319 322 324 326 326 325 325 325 324 324 323 322 320 317 316 317 316 311 310 311 310 309 309 307 303 299 295 292 289
242 248 253 246 239 238 238 242 250 251 245 249 257 264 267 268 269 271 274 280 285 288 289 289 289 288 285 282 280 277 274 270 262 256 254 252 251 251 252 255 262 270 278 282 284 289 299 309 315 316 316 316 315 314 315 316 317 319 321 322 323 322 322 322 322 323 323 322 320 317 316 317 315 311 310 310 310 310 309 308 306 303 298 294 291
240 243 246 242 239 239 239 241 244 242 242 248 252 252 252 254 261 272 281 287 290 292 293 294 297 297 293 289 285 280 276 270 263 257 255 250 247 248 250 256 264 272 277 282 287 293 301 308 311 312 313 314 314 312 312 313 314 316 317 318 319 319 319 319 319 321 321 320 319 316 315 315 314 311 311 310 310 309 309 310 310 307 303 296 290
229 231 234 234 232 231 232 232 232 232 234 234 230 230 237 252 269 280 284 288 292 298 304 309 312 312 308 301 294 287 281 276 271 269 261 251 246 247 253 260 266 273 278 284 290 295 301 304 306 309 311 311 310 308 308 309 311 312 314 315 316 316 315 315 316 317 317 316 316 315 313 314 313 311 310 310 310 309 310 312 314 312 307 294 285
217 219 219 219 219 219 221 221 219 218 214 211 214 226 243 261 277 282 284 290 296 302 306 309 312 315 317 314 308 299 292 291 287 267 252 248 248 251 256 262 268 275 281 286 291 296 300 302 305 308 308 306 303 303 305 306 308 309 310 311 313 313 312 313 313 314 314 313 314 314 312 312 313 312 310 310 311 309 309 313 315 307 273 257 266
204 203 202 202 203 204 204 203 204 205 206 212 223 235 249 268 286 291 294 299 303 307 309 312 317 320 322 323 321 319 321 316 290 262 250 249 252 255 260 267 273 279 283 287 291 295 299 302 304 303 300 299 299 300 303 304 305 307 308 309 311 311 311 311 312 312 312 311 313 314 311 310 312 311 310 311 310 308 308 311 309 281 243 244 256
192 190 192 194 196 198 199 201 206 208 211 218 226 236 255 274 289 298 304 310 316 320 322 326 330 331 332 330 328 331 334 320 288 265 257 256 257 261 267 273 277 280 283 288 292 296 300 301 299 297 295 296 297 299 300 301 303 305 306 308 309 310 310 310 309 309 309 309 312 314 310 307 309 310 310 311 309 308 308 308 300 278 257 253 255
196 197 200 203 205 205 204 203 203 204 207 216 229 244 260 273 284 296 305 314 323 329 333 336 337 336 334 329 323 319 312 300 284 271 265 264 266 269 272 275 278 281 285 289 295 298 298 297 294 293 294 296 297 298 300 301 302 304 305 306 308 308 308 307 307 307 306 306 311 314 308 305 306 307 309 312 311 309 308 304 298 290 279 268 262